Location: Nebula Knoll Observatory
(43.6666°N, 71.0000°W)
Time: 10:47:24
(UTC-04:00)

Daily predictions for brighter satellites

Satellite Brightness Start Highest point End
(mag) Time Altitude Azimuth Time Altitude Azimuth Time Altitude Azimuth
Cosmos 1271 Rocket 3.7 18:58:26 10° SSW 19:02:08 53° WNW 19:05:56 10° N
ALOS 2.3 18:57:42 10° SSE 19:02:18 62° ENE 19:06:55 10° N
Cosmos 1709 Rocket 4.3 18:56:31 10° S 19:02:53 82° W 19:09:19 10° N
FALCON 9 R/B 2.8 19:01:18 10° SSW 19:03:18 18° SSE 19:06:25 10° ESE
ISS -2.2 19:02:46 10° S 19:05:13 20° SE 19:07:40 10° E
YAOGAN 1 4.3 19:05:48 10° SSW 19:09:49 38° W 19:13:53 10° NNW
Cosmos 1943 Rocket 4.0 19:10:40 10° NW 19:15:40 34° WSW 19:20:41 10° SSW
USA 234 3.9 19:09:16 10° SSE 19:15:40 56° SW 19:22:08 10° NW
SKYMED 2 4.4 19:13:53 10° N 19:18:09 57° WNW 19:22:23 10° SSW
Cosmos 1606 Rocket 4.5 19:14:04 10° SSW 19:18:18 53° W 19:22:33 10° N
Cosmos 1812 Rocket 4.5 19:15:06 10° SSE 19:18:53 27° E 19:22:41 10° NNE
Thor Agena Rocket 3.6 19:15:34 10° NNE 19:20:48 64° ESE 19:25:56 10° S
Cosmos 1953 Rocket 4.4 19:16:40 10° NNW 19:20:53 53° W 19:25:05 10° S
BREEZE-M DEB 4.4 19:11:08 10° WNW 19:21:59 55° SW 19:25:21 10° SE
Cosmos 1805 4.1 19:20:27 10° SSE 19:23:46 27° E 19:27:07 10° NNE
FREGAT/IRIS 2.5 19:22:14 10° SSE 19:25:13 63° ENE 19:28:13 10° N
GP-B 4.1 19:22:27 10° NNE 19:26:05 24° E 19:29:44 10° SE
Resurs 01 Rocket 2.7 19:24:20 11° ESE 19:27:51 26° ENE 19:31:31 10° N
Cosmos 2058 Rocket 3.4 19:24:13 10° SSW 19:28:34 70° W 19:32:57 10° N
SL-08 ROCKET BODY 4.5 19:24:05 10° S 19:29:58 82° W 19:36:00 10° N
CZ-2D R/B 4.1 19:28:42 11° SE 19:31:53 30° ENE 19:35:16 10° N
Cosmos 372 Rocket 4.0 19:29:54 10° NNW 19:35:07 61° ENE 19:40:18 10° SSE
Cosmos 2184 Rocket 4.0 19:29:58 10° S 19:36:17 76° E 19:42:39 10° N
Cosmos 1697 Rocket 4.2 19:35:01 10° N 19:38:55 19° NE 19:41:12 15° ENE
Cosmos 1125 Rocket 3.5 19:34:39 10° NNW 19:39:58 75° ENE 19:45:17 10° SSE
Cosmos 1980 Rocket 4.1 19:38:27 10° NNE 19:40:53 13° NE 19:42:52 11° ENE
Meteor 1-24 Rocket 3.8 19:35:09 10° N 19:41:09 88° WSW 19:46:54 10° S
Geosat 4.2 19:41:46 10° SSE 19:46:47 74° WSW 19:51:50 10° NNW
Envisat 3.6 19:44:02 17° SE 19:47:24 36° ENE 19:52:01 10° N
Milstar 3 Cent rocket 4.0 19:45:57 10° SSW 19:48:18 13° S 19:50:16 10° SSE
ATLAS 2AS CENTAUR R/B 3.7 19:40:52 10° NNW 19:48:23 40° NE 19:53:08 20° E
Cosmos 1356 3.5 19:45:10 10° N 19:48:37 55° ENE 19:51:09 17° SSE
Okean 3 Rocket 4.4 19:46:39 10° NNE 19:50:35 29° ENE 19:51:51 25° ESE
Cosmos 2327 Rocket 4.5 19:47:44 10° S 19:53:51 87° W 19:59:59 10° N
USA 186 3.7 19:55:56 11° NNE 19:55:56 11° NNE 19:56:07 10° NNE
H-2A R/B 3.4 19:57:53 10° S 20:01:31 54° W 20:05:15 10° NNW
Cosmos 1544 3.5 19:59:05 10° SSW 20:02:39 62° W 20:06:15 10° N
SJ-6B 3.3 19:59:14 10° S 20:03:10 61° W 20:07:03 10° NNW
Cosmos 1953 2.4 20:05:00 10° S 20:08:56 54° E 20:12:56 10° NNE
Cosmos 540 Rocket 3.9 20:05:52 10° SSW 20:10:55 62° WNW 20:16:01 10° NNE
Cosmos 292 Rocket 3.7 20:11:13 10° S 20:16:01 71° ESE 20:20:52 10° NNE
SL-27 R/B 2.6 20:12:44 10° SSW 20:16:21 79° WNW 20:20:02 10° NNE
BREEZE-M DEB (TANK) 4.2 20:13:05 10° WNW 20:17:20 60° NNE 20:25:06 24° E
Cosmos 1076 Rocket 3.7 20:14:03 10° N 20:18:15 46° ENE 20:18:25 46° E
SJ 16-02 1.7 20:17:46 10° NNW 20:22:07 63° WSW 20:24:56 21° S
BREEZE M DEB (TANK) 3.2 20:18:11 10° W 20:23:02 33° NNW 20:23:46 28° NNE
COSMOS 2406 4.3 20:17:59 10° SW 20:23:28 47° WNW 20:29:02 10° NNE
Cosmos 1674 2.5 20:21:21 10° N 20:25:06 90° W 20:25:44 60° S
Cosmos 2369 3.6 20:26:50 10° NNW 20:32:30 71° ENE 20:34:09 47° SE
Resurs 1-3 3.8 20:33:13 29° S 20:35:21 68° WSW 20:39:45 10° NNW
ISS -2.6 20:38:11 10° WSW 20:40:35 41° W 20:40:35 41° W
MOS 1-B Rocket 4.0 20:37:07 17° S 20:41:50 75° WSW 20:47:29 10° NNW
Cosmos 2154 Rocket 4.4 20:35:47 10° SSW 20:41:56 63° W 20:48:11 10° N
BREEZE-M DEB (TANK) 2.8 20:38:36 10° WSW 20:47:57 87° SSE 20:48:25 72° E
Meteor 1-21 Rocket 4.5 20:42:37 10° NNW 20:48:18 67° W 20:51:42 24° S
Cosmos 1733 4.4 20:50:20 35° N 20:50:20 35° N 20:52:39 10° N
Spot 2 Rocket 4.1 20:50:59 26° SSW 20:53:39 53° W 20:58:36 10° NNW
Cosmos 2341 Rocket 4.2 20:50:59 10° SSW 20:57:07 67° W 21:03:21 10° N
Meteor 2-21 4.3 20:54:21 19° S 20:58:54 89° E 21:05:04 10° N
SJ-11-01 4.3 20:58:56 78° WSW 20:58:56 78° WSW 21:03:41 10° NNW
Cosmos 2082 Rocket 4.0 21:03:55 19° NNE 21:03:55 19° NNE 21:05:24 10° NNE
Resurs 01 Rocket 3.3 21:01:55 20° SW 21:04:12 31° W 21:08:10 10° NNW
Cosmos 1959 Rocket 4.3 21:05:20 72° SE 21:05:51 77° E 21:12:09 10° N
Cosmos 2278 3.9 21:00:38 10° NNW 21:06:16 66° WSW 21:07:09 57° SSW
ERS-1 Rocket 4.0 21:12:21 35° NNE 21:12:21 35° NNE 21:15:26 10° N
Cosmos 1939 Rocket 4.3 21:12:33 36° WNW 21:12:33 36° WNW 21:15:20 10° NNW
Meteor 2-15 Rocket 4.3 21:05:31 10° N 21:11:37 85° W 21:12:14 73° S
Cosmos 2366 rocket 3.9 21:14:27 80° ENE 21:14:27 80° ENE 21:20:36 10° N
Cosmos 1656 3.8 21:10:19 10° NNW 21:15:57 67° WSW 21:16:07 66° WSW
Cosmos 2322 Rocket 4.0 21:12:08 10° N 21:14:57 20° NNE 21:14:57 20° NNE
Cosmos 2218 Rocket 3.9 21:20:07 73° SSW 21:20:45 83° W 21:27:00 10° N
Cosmos 1697 Rocket 2.9 21:17:55 10° NNW 21:22:57 70° NW 21:22:57 70° NW
Cosmos 2285 Rocket 4.5 21:18:24 10° SW 21:24:45 60° WNW 21:31:08 10° NNE
Cosmos 1818 4.3 21:20:26 10° NNW 21:24:30 48° N 21:24:30 48° N
Cosmos 1980 Rocket 2.8 21:20:27 10° NNW 21:24:38 47° N 21:24:38 47° N
ATLAS 2AS CENTAUR R/B 3.1 21:32:01 10° NW 21:39:53 63° WSW 21:40:36 60° SW
ARGOS 4.3 21:46:44 37° NNW 21:46:44 37° NNW 21:49:56 10° NNW
Cosmos 1727 Rocket 4.3 21:39:03 10° NNW 21:44:38 65° NW 21:44:38 65° NW
NOSS 3-4 (A) 4.3 21:45:19 10° NNW 21:50:59 48° NNE 21:50:59 48° NNE
NOSS 3-4 (C) 4.4 21:45:26 10° NNW 21:51:05 48° NNE 21:51:05 48° NNE
H-2A R/B 4.0 21:57:09 23° N 21:57:09 23° N 21:59:01 10° N
SL-16 R/B 3.9 21:50:28 10° NNW 21:53:07 25° N 21:53:07 25° N
Cosmos 2082 Rocket 4.4 22:45:39 21° NNW 22:45:39 21° NNW 22:48:46 10° N
